When you browse on this site, cookies collect data to enhance your experience and personalize the content and advertising you see.
Visit our Privacy Policy to learn more. By continuing to use the site, you agree to this use of cookies and data.
  • In Germany
  • List of Countries
  • For 7 days
  • Water Temperature
  • Satellite Maps
  • Weather Map
  • Weather Widgets
  • user-avatar
    Login

    Hourly Weather Oran

    Today, 23 July, Tuesday

    Time Temperature Precipitation Wind Pressure Humidity
    00:00 +29°C° 0 mm 2 mps 752 mmHg 61%
    01:00 +28°C° 0 mm 2 mps 751 mmHg 62%
    02:00 +28°C° 0 mm 1 mps 751 mmHg 64%
    03:00 +27°C° 0 mm 1 mps 750 mmHg 66%
    04:00 +28°C° 0 mm 1 mps 750 mmHg 65%
    05:00 +28°C° 0 mm 1 mps 750 mmHg 63%
    06:00 +28°C° 0 mm 1 mps 751 mmHg 62%
    07:00 +30°C° 0 mm 1 mps 751 mmHg 56%
    08:00 +31°C° 0 mm 1 mps 751 mmHg 49%
    09:00 +33°C° 0 mm 1 mps 751 mmHg 43%
    10:00 +36°C° 0 mm 2 mps 751 mmHg 38%
    11:00 +38°C° 0 mm 2 mps 751 mmHg 32%
    12:00 +40°C° 0 mm 3 mps 751 mmHg 27%
    13:00 +41°C° 0 mm 4 mps 750 mmHg 28%
    14:00 +41°C° 0 mm 4 mps 750 mmHg 29%
    15:00 +40°C° 0 mm 5 mps 749 mmHg 31%
    16:00 +39°C° 0 mm 5 mps 749 mmHg 32%
    17:00 +37°C° 0 mm 5 mps 749 mmHg 34%
    18:00 +36°C° 0 mm 5 mps 749 mmHg 35%
    19:00 +35°C° 0 mm 4 mps 749 mmHg 38%
    20:00 +34°C° 0 mm 3 mps 749 mmHg 41%
    21:00 +31°C° 0 mm 2 mps 749 mmHg 44%
    22:00 +30°C° 0 mm 2 mps 749 mmHg 53%
    23:00 +28°C° 0 mm 2 mps 749 mmHg 62%

    Tomorrow, 24 July, Wednesday

    Time Temperature Precipitation Wind Pressure Humidity
    00:00 +27°C° 0 mm 3 mps 750 mmHg 71%
    01:00 +27°C° 0 mm 3 mps 749 mmHg 74%
    02:00 +26°C° 0 mm 2 mps 749 mmHg 77%
    03:00 +26°C° 0 mm 2 mps 749 mmHg 80%
    04:00 +26°C° 0 mm 2 mps 749 mmHg 79%
    05:00 +26°C° 0 mm 2 mps 749 mmHg 78%
    06:00 +26°C° 0 mm 1 mps 749 mmHg 77%
    07:00 +28°C° 0 mm 2 mps 750 mmHg 69%
    08:00 +29°C° 0 mm 2 mps 750 mmHg 62%
    09:00 +31°C° 0 mm 2 mps 750 mmHg 54%
    10:00 +33°C° 0 mm 3 mps 750 mmHg 50%
    11:00 +34°C° 0 mm 3 mps 750 mmHg 46%
    12:00 +36°C° 0 mm 3 mps 750 mmHg 42%
    13:00 +36°C° 0 mm 3 mps 749 mmHg 40%
    14:00 +37°C° 0 mm 3 mps 749 mmHg 37%
    15:00 +38°C° 0 mm 2 mps 749 mmHg 35%
    16:00 +37°C° 0 mm 2 mps 749 mmHg 38%
    17:00 +36°C° 0 mm 2 mps 749 mmHg 41%
    18:00 +33°C° 0 mm 1 mps 748 mmHg 44%
    19:00 +32°C° 0 mm 1 mps 749 mmHg 47%
    20:00 +31°C° 0 mm 1 mps 749 mmHg 50%
    21:00 +30°C° 0 mm 1 mps 750 mmHg 54%
    22:00 +29°C° 0 mm 2 mps 749 mmHg 62%
    23:00 +27°C° 0 mm 3 mps 749 mmHg 71%

    Day after tomorrow, 25 July, Thursday

    Time Temperature Precipitation Wind Pressure Humidity
    00:00 +26°C° 0 mm 3 mps 749 mmHg 80%
    01:00 +26°C° 0 mm 3 mps 749 mmHg 80%
    02:00 +26°C° 0 mm 4 mps 749 mmHg 79%
    03:00 +26°C° 0 mm 4 mps 749 mmHg 79%
    04:00 +26°C° 0 mm 4 mps 749 mmHg 80%
    05:00 +26°C° 0 mm 4 mps 749 mmHg 81%
    06:00 +26°C° 0 mm 3 mps 750 mmHg 82%
    07:00 +27°C° 0 mm 3 mps 750 mmHg 74%
    08:00 +29°C° 0 mm 3 mps 750 mmHg 65%
    09:00 +30°C° 0 mm 4 mps 750 mmHg 57%
    10:00 +31°C° 0 mm 3 mps 750 mmHg 53%
    11:00 +33°C° 0 mm 3 mps 750 mmHg 49%
    12:00 +35°C° 0 mm 3 mps 750 mmHg 45%
    13:00 +35°C° 0 mm 3 mps 750 mmHg 42%
    14:00 +36°C° 0 mm 3 mps 749 mmHg 39%
    15:00 +37°C° 0 mm 3 mps 749 mmHg 37%
    16:00 +36°C° 0 mm 2 mps 749 mmHg 38%
    17:00 +35°C° 0 mm 2 mps 749 mmHg 39%
    18:00 +35°C° 0 mm 2 mps 749 mmHg 40%
    19:00 +33°C° 0 mm 1 mps 749 mmHg 42%
    20:00 +32°C° 0 mm 1 mps 749 mmHg 44%
    21:00 +32°C° 0 mm 1 mps 750 mmHg 45%
    22:00 +31°C° 0 mm 1 mps 749 mmHg 49%
    23:00 +30°C° 0 mm 1 mps 749 mmHg 53%

    26 July, Friday

    Time Temperature Precipitation Wind Pressure Humidity
    00:00 +29°C° 0 mm 1 mps 749 mmHg 57%
    01:00 +28°C° 0 mm 2 mps 749 mmHg 61%
    02:00 +27°C° 0 mm 2 mps 748 mmHg 66%
    03:00 +26°C° 0 mm 2 mps 748 mmHg 70%
    04:00 +27°C° 0 mm 2 mps 748 mmHg 67%
    05:00 +27°C° 0 mm 2 mps 748 mmHg 64%
    06:00 +28°C° 0 mm 1 mps 748 mmHg 62%
    07:00 +29°C° 0 mm 2 mps 748 mmHg 55%
    08:00 +31°C° 0 mm 2 mps 748 mmHg 48%
    09:00 +34°C° 0 mm 3 mps 748 mmHg 41%
    10:00 +35°C° 0 mm 3 mps 748 mmHg 40%
    11:00 +35°C° 0 mm 3 mps 748 mmHg 38%
    12:00 +36°C° 0 mm 4 mps 748 mmHg 37%
    13:00 +36°C° 0 mm 4 mps 748 mmHg 38%
    14:00 +35°C° 0 mm 5 mps 747 mmHg 39%
    15:00 +35°C° 0 mm 5 mps 747 mmHg 40%
    16:00 +35°C° 0 mm 5 mps 747 mmHg 37%
    17:00 +35°C° 0 mm 5 mps 746 mmHg 34%
    18:00 +35°C° 0 mm 5 mps 746 mmHg 31%
    19:00 +34°C° 0 mm 5 mps 746 mmHg 31%
    20:00 +33°C° 0 mm 5 mps 747 mmHg 31%
    21:00 +32°C° 0 mm 6 mps 747 mmHg 31%
    22:00 +30°C° 0 mm 7 mps 747 mmHg 34%
    23:00 +29°C° 0 mm 7 mps 747 mmHg 37%

    27 July, Saturday

    Time Temperature Precipitation Wind Pressure Humidity
    00:00 +28°C° 0 mm 8 mps 747 mmHg 40%
    01:00 +27°C° 0 mm 8 mps 747 mmHg 43%
    02:00 +27°C° 0 mm 8 mps 746 mmHg 45%
    03:00 +26°C° 0 mm 8 mps 746 mmHg 47%
    04:00 +26°C° 0 mm 8 mps 747 mmHg 49%
    05:00 +26°C° 0 mm 8 mps 747 mmHg 50%
    06:00 +26°C° 0 mm 8 mps 747 mmHg 52%
    07:00 +27°C° 0 mm 8 mps 748 mmHg 49%
    08:00 +28°C° 0 mm 9 mps 748 mmHg 46%
    09:00 +29°C° 0 mm 9 mps 748 mmHg 42%
    10:00 +31°C° 0 mm 9 mps 748 mmHg 39%
    11:00 +32°C° 0 mm 9 mps 748 mmHg 35%
    12:00 +32°C° 0 mm 9 mps 748 mmHg 32%
    13:00 +32°C° 0 mm 9 mps 748 mmHg 29%
    14:00 +32°C° 0 mm 8 mps 748 mmHg 27%
    15:00 +32°C° 0 mm 8 mps 748 mmHg 25%
    16:00 +30°C° 0 mm 7 mps 747 mmHg 25%
    17:00 +30°C° 0 mm 6 mps 747 mmHg 25%
    18:00 +29°C° 0 mm 5 mps 747 mmHg 24%
    19:00 +28°C° 0 mm 4 mps 747 mmHg 29%
    20:00 +27°C° 0 mm 4 mps 748 mmHg 33%
    21:00 +26°C° 0 mm 4 mps 748 mmHg 38%
    22:00 +25°C° 0 mm 4 mps 748 mmHg 40%
    23:00 +25°C° 0 mm 4 mps 748 mmHg 42%

    28 July, Sunday

    Time Temperature Precipitation Wind Pressure Humidity
    00:00 +23°C° 0 mm 4 mps 748 mmHg 43%
    01:00 +23°C° 0 mm 4 mps 747 mmHg 44%
    02:00 +23°C° 0 mm 4 mps 747 mmHg 45%
    03:00 +24°C° 0 mm 3 mps 747 mmHg 46%
    04:00 +24°C° 0 mm 3 mps 747 mmHg 44%
    05:00 +24°C° 0 mm 3 mps 747 mmHg 42%
    06:00 +25°C° 0 mm 3 mps 748 mmHg 40%
    07:00 +26°C° 0 mm 3 mps 748 mmHg 37%
    08:00 +28°C° 0 mm 3 mps 748 mmHg 33%
    09:00 +30°C° 0 mm 2 mps 748 mmHg 30%
    10:00 +31°C° 0 mm 3 mps 748 mmHg 29%
    11:00 +33°C° 0 mm 3 mps 748 mmHg 28%
    12:00 +34°C° 0 mm 3 mps 748 mmHg 27%
    13:00 +34°C° 0 mm 3 mps 748 mmHg 27%
    14:00 +34°C° 0 mm 4 mps 747 mmHg 28%
    15:00 +34°C° 0 mm 4 mps 747 mmHg 29%
    16:00 +33°C° 0 mm 3 mps 747 mmHg 32%
    17:00 +31°C° 0 mm 3 mps 747 mmHg 35%
    18:00 +30°C° 0 mm 2 mps 747 mmHg 38%
    19:00 +29°C° 0 mm 2 mps 747 mmHg 43%
    20:00 +28°C° 0 mm 1 mps 747 mmHg 48%
    21:00 +27°C° 0 mm 1 mps 748 mmHg 52%
    22:00 +26°C° 0 mm 1 mps 748 mmHg 55%
    23:00 +26°C° 0 mm 1 mps 748 mmHg 57%
    Show more